When you browse on this site, cookies collect data to enhance your experience and personalize the content and advertising you see.
Visit our Privacy Policy to learn more. By continuing to use the site, you agree to this use of cookies and data.
  • In Österreich
  • Länderverzeichnis
  • Für 7 Tage
  • Wassertemperatur
  • Satellitenkarten
  • Wetterkarte
  • News
  • Widgets
  • user-avatar
    Anmelden

    Stündliche Wetter Wien

    Heute, 21 Februar, Donnerstag

    Zeit Temperatur Niederschläge Wind Luftdruck Luftfeuchtigkeit
    00:00 +6°C° 0 mm 1 m/S 751 mmHg 81%
    01:00 +5°C° 0 mm 1 m/S 751 mmHg 82%
    02:00 +5°C° 0 mm 1 m/S 751 mmHg 82%
    03:00 +5°C° 0 mm 1 m/S 751 mmHg 83%
    04:00 +5°C° 0 mm 1 m/S 751 mmHg 83%
    05:00 +4°C° 0 mm 1 m/S 751 mmHg 83%
    06:00 +4°C° 0 mm 1 m/S 751 mmHg 83%
    07:00 +4°C° 0 mm 1 m/S 751 mmHg 83%
    08:00 +6°C° 0 mm 1 m/S 751 mmHg 77%
    09:00 +6°C° 0 mm 2 m/S 751 mmHg 71%
    10:00 +8°C° 0 mm 2 m/S 751 mmHg 65%
    11:00 +9°C° 0 mm 3 m/S 751 mmHg 61%
    12:00 +10°C° 0 mm 3 m/S 750 mmHg 56%
    13:00 +12°C° 0 mm 4 m/S 750 mmHg 52%
    14:00 +12°C° 0 mm 4 m/S 750 mmHg 52%
    15:00 +12°C° 0 mm 4 m/S 750 mmHg 53%
    16:00 +12°C° 0 mm 4 m/S 750 mmHg 54%
    17:00 +11°C° 0.2 mm 3 m/S 750 mmHg 61%
    18:00 +10°C° 0.2 mm 3 m/S 750 mmHg 68%
    19:00 +9°C° 0.2 mm 3 m/S 750 mmHg 74%
    20:00 +9°C° 0.1 mm 3 m/S 750 mmHg 74%
    21:00 +8°C° 0.1 mm 3 m/S 750 mmHg 74%
    22:00 +7°C° 0.1 mm 4 m/S 750 mmHg 74%
    23:00 +7°C° 0 mm 4 m/S 749 mmHg 75%

    Morgen, 22 Februar, Freitag

    Zeit Temperatur Niederschläge Wind Luftdruck Luftfeuchtigkeit
    00:00 +7°C° 0 mm 4 m/S 749 mmHg 75%
    01:00 +7°C° 0 mm 5 m/S 749 mmHg 76%
    02:00 +7°C° 0.9 mm 5 m/S 749 mmHg 78%
    03:00 +6°C° 0.9 mm 5 m/S 748 mmHg 80%
    04:00 +5°C° 0.9 mm 6 m/S 748 mmHg 82%
    05:00 +7°C° 1.6 mm 6 m/S 748 mmHg 82%
    06:00 +7°C° 1.6 mm 6 m/S 748 mmHg 81%
    07:00 +7°C° 1.6 mm 6 m/S 748 mmHg 81%
    08:00 +7°C° 0.5 mm 6 m/S 748 mmHg 79%
    09:00 +8°C° 0.5 mm 6 m/S 749 mmHg 77%
    10:00 +8°C° 0.5 mm 6 m/S 749 mmHg 76%
    11:00 +8°C° 0.2 mm 6 m/S 750 mmHg 71%
    12:00 +6°C° 0.2 mm 7 m/S 750 mmHg 67%
    13:00 +6°C° 0.2 mm 7 m/S 751 mmHg 62%
    14:00 +6°C° 0 mm 7 m/S 752 mmHg 60%
    15:00 +5°C° 0 mm 7 m/S 753 mmHg 58%
    16:00 +4°C° 0 mm 6 m/S 753 mmHg 55%
    17:00 +3°C° 0 mm 6 m/S 754 mmHg 55%
    18:00 +2°C° 0 mm 5 m/S 755 mmHg 55%
    19:00 +1°C° 0 mm 5 m/S 756 mmHg 55%
    20:00 0°C° 0 mm 5 m/S 757 mmHg 54%
    21:00 -1°C° 0 mm 4 m/S 757 mmHg 53%
    22:00 -2°C° 0 mm 4 m/S 758 mmHg 53%
    23:00 -2°C° 0 mm 4 m/S 759 mmHg 52%

    übermorgen, 23 Februar, Samstag

    Zeit Temperatur Niederschläge Wind Luftdruck Luftfeuchtigkeit
    00:00 -3°C° 0 mm 4 m/S 759 mmHg 51%
    01:00 -3°C° 0 mm 4 m/S 759 mmHg 50%
    02:00 -3°C° 0 mm 4 m/S 759 mmHg 49%
    03:00 -4°C° 0 mm 3 m/S 760 mmHg 48%
    04:00 -4°C° 0 mm 3 m/S 760 mmHg 48%
    05:00 -4°C° 0 mm 3 m/S 760 mmHg 47%
    06:00 -4°C° 0 mm 3 m/S 760 mmHg 47%
    07:00 -4°C° 0 mm 3 m/S 760 mmHg 46%
    08:00 -4°C° 0 mm 3 m/S 760 mmHg 42%
    09:00 -2°C° 0 mm 3 m/S 761 mmHg 38%
    10:00 -2°C° 0 mm 4 m/S 761 mmHg 34%
    11:00 -1°C° 0 mm 4 m/S 761 mmHg 31%
    12:00 0°C° 0 mm 4 m/S 760 mmHg 29%
    13:00 0°C° 0 mm 4 m/S 760 mmHg 26%
    14:00 0°C° 0 mm 4 m/S 760 mmHg 26%
    15:00 +1°C° 0 mm 4 m/S 759 mmHg 27%
    16:00 +1°C° 0 mm 4 m/S 759 mmHg 27%
    17:00 +1°C° 0 mm 3 m/S 759 mmHg 30%
    18:00 0°C° 0 mm 3 m/S 760 mmHg 33%
    19:00 -1°C° 0 mm 2 m/S 760 mmHg 36%
    20:00 -1°C° 0 mm 2 m/S 760 mmHg 36%
    21:00 -2°C° 0 mm 2 m/S 760 mmHg 36%
    22:00 -2°C° 0 mm 2 m/S 760 mmHg 36%
    23:00 -2°C° 0 mm 2 m/S 760 mmHg 36%

    24 Februar, Sonntag

    Zeit Temperatur Niederschläge Wind Luftdruck Luftfeuchtigkeit
    00:00 -2°C° 0 mm 2 m/S 760 mmHg 36%
    01:00 -2°C° 0 mm 2 m/S 760 mmHg 36%
    02:00 -3°C° 0 mm 2 m/S 760 mmHg 36%
    03:00 -3°C° 0 mm 2 m/S 759 mmHg 36%
    04:00 -3°C° 0 mm 2 m/S 759 mmHg 36%
    05:00 -3°C° 0 mm 2 m/S 759 mmHg 36%
    06:00 -3°C° 0 mm 2 m/S 759 mmHg 35%
    07:00 -3°C° 0 mm 2 m/S 759 mmHg 35%
    08:00 -1°C° 0 mm 2 m/S 759 mmHg 31%
    09:00 +1°C° 0 mm 2 m/S 759 mmHg 28%
    10:00 +3°C° 0 mm 2 m/S 759 mmHg 25%
    11:00 +3°C° 0 mm 3 m/S 758 mmHg 25%
    12:00 +4°C° 0 mm 3 m/S 758 mmHg 24%
    13:00 +5°C° 0 mm 3 m/S 758 mmHg 23%
    14:00 +5°C° 0 mm 3 m/S 757 mmHg 27%
    15:00 +6°C° 0 mm 2 m/S 757 mmHg 31%
    16:00 +6°C° 0 mm 2 m/S 757 mmHg 35%
    17:00 +5°C° 0 mm 2 m/S 757 mmHg 40%
    18:00 +3°C° 0 mm 3 m/S 757 mmHg 45%
    19:00 +2°C° 0 mm 3 m/S 757 mmHg 50%
    20:00 +2°C° 0 mm 3 m/S 757 mmHg 52%
    21:00 +2°C° 0 mm 3 m/S 757 mmHg 55%
    22:00 +1°C° 0 mm 4 m/S 757 mmHg 57%
    23:00 0°C° 0 mm 4 m/S 757 mmHg 58%

    25 Februar, Montag

    Zeit Temperatur Niederschläge Wind Luftdruck Luftfeuchtigkeit
    00:00 0°C° 0 mm 4 m/S 757 mmHg 59%
    01:00 0°C° 0 mm 4 m/S 756 mmHg 60%
    02:00 0°C° 0 mm 4 m/S 756 mmHg 62%
    03:00 0°C° 0 mm 4 m/S 756 mmHg 65%
    04:00 0°C° 0 mm 4 m/S 756 mmHg 67%
    05:00 0°C° 0 mm 4 m/S 756 mmHg 68%
    06:00 0°C° 0 mm 4 m/S 756 mmHg 70%
    07:00 0°C° 0 mm 4 m/S 756 mmHg 71%
    08:00 +1°C° 0 mm 4 m/S 756 mmHg 68%
    09:00 +3°C° 0 mm 4 m/S 756 mmHg 65%
    10:00 +4°C° 0 mm 4 m/S 757 mmHg 62%
    11:00 +5°C° 0 mm 3 m/S 757 mmHg 61%
    12:00 +7°C° 0 mm 2 m/S 757 mmHg 59%
    13:00 +8°C° 0 mm 2 m/S 757 mmHg 58%
    14:00 +9°C° 0 mm 1 m/S 757 mmHg 58%
    15:00 +9°C° 0 mm 1 m/S 757 mmHg 58%
    16:00 +8°C° 0 mm 0 m/S 757 mmHg 57%
    17:00 +7°C° 0 mm 0 m/S 757 mmHg 62%
    18:00 +6°C° 0 mm 0 m/S 757 mmHg 67%
    19:00 +5°C° 0 mm 0 m/S 757 mmHg 72%
    20:00 +5°C° 0 mm 1 m/S 757 mmHg 75%
    21:00 +5°C° 0 mm 1 m/S 757 mmHg 77%
    22:00 +5°C° 0 mm 1 m/S 757 mmHg 80%
    23:00 +4°C° 0 mm 1 m/S 757 mmHg 81%

    26 Februar, Dienstag

    Zeit Temperatur Niederschläge Wind Luftdruck Luftfeuchtigkeit
    00:00 +3°C° 0 mm 2 m/S 757 mmHg 82%
    01:00 +3°C° 0 mm 2 m/S 757 mmHg 84%
    02:00 +3°C° 0 mm 2 m/S 756 mmHg 84%
    03:00 +3°C° 0 mm 2 m/S 756 mmHg 85%
    04:00 +1°C° 0 mm 3 m/S 755 mmHg 85%
    05:00 +1°C° 0 mm 3 m/S 755 mmHg 86%
    06:00 +1°C° 0 mm 3 m/S 755 mmHg 87%
    07:00 +1°C° 0 mm 3 m/S 755 mmHg 87%
    08:00 +3°C° 0 mm 3 m/S 755 mmHg 80%
    09:00 +4°C° 0 mm 4 m/S 755 mmHg 73%
    10:00 +6°C° 0 mm 4 m/S 755 mmHg 66%
    11:00 +7°C° 0 mm 4 m/S 754 mmHg 59%
    12:00 +10°C° 0 mm 4 m/S 754 mmHg 52%
    13:00 +11°C° 0 mm 4 m/S 754 mmHg 46%
    14:00 +11°C° 0 mm 4 m/S 753 mmHg 47%
    15:00 +12°C° 0 mm 4 m/S 753 mmHg 48%
    16:00 +12°C° 0 mm 3 m/S 752 mmHg 48%
    17:00 +11°C° 0 mm 4 m/S 752 mmHg 53%
    18:00 +10°C° 0 mm 4 m/S 752 mmHg 58%
    19:00 +8°C° 0 mm 4 m/S 752 mmHg 62%
    20:00 +8°C° 0 mm 4 m/S 752 mmHg 62%
    21:00 +8°C° 0 mm 5 m/S 752 mmHg 61%
    22:00 +8°C° 0 mm 5 m/S 752 mmHg 60%
    23:00 +8°C° 0 mm 5 m/S 752 mmHg 61%
    Mehr zeigen